Vorticity
15 15 14 14 14 13 10 7 5 5 5 7 17 28 32 21 13 12 13 9 7 1 -8 -16 -10 0 9 12 10 9 9 9 9 10 10 10 10 10 10 9 9 8 8 7 7 7 7 8 8 8 9 9 9 9 10 10 10 10 10 10 9 8 8 7 7 7 7 7 8
12 12 12 12 12 10 8 5 4 5 7 11 24 31 28 12 10 11 11 8 4 -3 -10 -11 -3 5 10 10 8 8 8 8 9 9 10 10 11 11 11 10 9 9 8 8 7 7 7 8 8 9 9 10 10 10 11 11 11 10 10 9 8 7 7 7 7 7 7 8 8
10 9 10 10 9 8 6 4 4 6 10 18 31 30 19 3 10 13 12 9 1 -6 -8 -4 3 7 8 8 7 7 7 8 8 9 9 10 11 11 11 11 10 10 9 9 8 8 8 8 9 10 10 11 11 11 11 11 11 10 9 8 7 7 8 8 7 7 8 9 9
9 8 8 8 7 5 4 4 6 10 17 27 34 25 11 4 13 14 11 5 -4 -7 -4 3 7 7 7 6 6 6 7 7 8 8 9 10 10 11 11 11 10 10 10 10 9 9 9 10 10 11 12 12 12 12 12 11 10 9 9 7 7 8 8 8 8 8 9 9 10
9 8 7 6 4 3 4 7 11 15 22 33 33 20 8 10 14 12 5 -5 -8 -5 1 6 6 6 5 5 5 6 7 7 8 8 9 9 10 10 10 10 11 11 11 11 11 11 11 11 12 13 13 13 13 12 11 9 9 8 8 8 9 8 8 8 8 9 9 10 10
9 7 6 4 2 3 7 12 16 20 26 34 29 18 11 14 11 4 -5 -13 -7 -0 5 6 6 5 5 4 5 6 7 7 8 8 9 9 9 10 10 11 11 12 12 12 12 12 12 13 13 14 14 14 13 12 10 9 9 8 8 8 9 9 8 9 9 9 9 10 9
9 8 7 4 4 8 12 15 19 23 27 32 24 15 10 10 7 -3 -12 -12 -2 4 7 6 5 5 4 4 5 6 7 8 8 9 9 10 10 10 10 11 12 12 13 13 13 13 14 14 14 14 14 13 12 11 10 9 9 8 8 9 9 9 8 9 9 9 9 9 7
13 12 10 7 6 9 13 18 24 27 28 28 18 9 4 8 2 -7 -13 -5 3 6 7 5 5 4 4 5 5 6 7 8 9 9 10 10 10 10 11 12 12 13 13 13 14 14 14 14 14 14 13 11 11 10 9 9 9 9 9 9 9 9 9 9 9 9 8 6 4
13 11 9 7 6 9 16 25 32 32 29 25 10 2 2 11 -1 -7 -5 3 6 6 5 4 4 4 4 4 5 6 7 9 10 10 10 10 10 11 11 12 13 13 13 14 14 14 14 14 14 13 12 10 10 9 8 8 9 9 9 9 8 9 9 9 8 7 6 4 3
10 9 7 4 4 11 22 35 34 31 25 16 0 0 7 14 2 0 3 7 6 4 2 3 4 4 4 5 6 7 9 10 11 11 11 11 11 11 12 12 13 13 13 13 13 13 13 13 12 11 11 10 9 9 8 9 9 9 9 10 9 8 8 8 7 5 4 3 2
8 8 6 2 5 15 29 41 31 25 15 -4 -7 7 19 13 8 7 7 5 1 -1 -0 2 4 5 5 5 7 9 11 12 12 12 12 11 11 12 12 13 13 13 13 13 13 12 12 12 11 10 9 10 10 9 9 9 10 9 9 9 9 8 7 6 5 3 2 1 1
8 8 6 3 7 19 32 39 26 12 -4 -21 4 20 24 11 8 5 2 -3 -5 -3 -0 3 4 5 6 7 9 11 13 14 13 13 12 12 12 12 12 12 12 12 12 12 12 12 12 11 11 10 9 8 9 10 9 9 10 10 9 9 8 7 6 4 3 2 1 1 0
9 8 7 5 9 22 33 34 15 -7 -19 -7 20 24 15 4 2 -2 -5 -8 -5 -2 1 3 4 6 8 10 12 13 14 14 14 13 13 13 13 13 12 12 11 11 11 11 11 11 11 11 10 9 8 8 9 10 10 9 9 9 8 7 7 6 4 3 2 2 1 1 0
11 10 10 9 12 24 33 30 -0 -17 -14 16 21 14 3 -4 -5 -7 -7 -6 -2 -0 2 3 5 7 9 12 13 14 15 15 14 14 14 13 13 12 12 11 11 11 10 11 11 11 10 10 9 9 8 8 9 10 11 10 10 8 7 5 4 4 3 2 2 2 1 1 0
13 13 13 13 17 26 32 25 -10 -14 1 20 10 1 -6 -8 -7 -6 -4 -2 -0 1 2 4 7 9 11 13 14 14 15 15 15 14 14 13 13 12 12 11 10 10 10 10 10 10 9 9 8 8 9 9 10 10 10 10 9 7 5 4 3 2 2 2 2 1 1 1 0
13 13 15 18 22 28 29 20 -7 -1 13 12 2 -6 -10 -9 -5 -3 -2 -1 0 1 3 5 8 11 12 13 13 14 15 15 15 14 14 13 13 12 11 11 10 10 10 9 9 9 9 8 8 9 9 10 10 10 9 8 7 5 4 2 2 1 1 1 1 1 1 1 1
7 12 19 25 29 31 28 17 -0 8 18 8 -0 -8 -12 -9 -5 -4 -3 -1 1 2 5 7 10 12 13 13 13 14 14 15 14 14 13 13 12 12 11 11 10 10 9 9 8 8 8 9 9 10 11 11 10 9 7 5 4 3 2 1 1 1 1 1 1 1 1 1 2
6 15 26 33 32 31 28 18 6 14 23 12 -1 -10 -14 -10 -7 -5 -3 -0 2 5 7 9 11 12 13 13 13 14 14 14 14 14 13 12 12 11 11 10 10 9 9 9 8 8 8 9 10 11 11 11 9 7 5 3 2 1 1 1 1 1 0 0 0 1 1 2 2
16 26 32 28 23 25 27 20 16 22 25 14 -3 -11 -13 -9 -6 -3 0 2 5 7 9 11 12 12 12 13 13 14 14 14 13 13 13 12 11 11 10 10 9 9 9 9 9 9 10 10 11 11 11 9 7 5 3 2 1 1 0 1 1 1 1 1 1 2 2 2 2
30 30 24 13 17 24 27 23 24 26 23 9 -5 -10 -9 -6 -2 2 5 7 8 9 11 12 12 12 13 13 13 13 13 13 13 13 12 11 11 11 10 10 9 9 9 10 10 11 11 11 11 10 9 7 5 3 2 1 0 0 0 1 1 1 1 1 2 2 2 1 0
27 19 13 15 23 27 26 23 24 22 15 2 -4 -5 -3 0 4 7 9 10 11 11 11 12 12 13 13 13 13 13 13 13 12 12 11 11 10 10 10 10 9 10 10 11 11 11 11 11 10 8 7 5 3 1 0 -0 -0 0 0 1 1 2 2 3 2 2 1 -0 1
12 11 17 25 25 23 20 18 16 12 6 -1 -3 -2 2 6 8 10 10 11 12 12 12 12 12 13 13 13 12 12 12 12 12 11 10 10 10 9 9 10 10 10 11 12 12 11 11 10 8 6 5 3 2 1 0 -0 0 0 1 1 2 3 3 2 1 0 1 2 5
8 16 24 26 21 17 14 12 8 4 -1 -4 -3 1 5 9 11 11 11 11 11 12 12 12 12 12 12 12 12 11 11 11 10 10 9 9 9 9 9 10 11 11 12 12 11 10 9 8 6 5 3 2 1 1 1 1 1 1 2 2 2 2 1 0 0 1 3 6 8
17 24 25 20 14 10 7 4 -1 -5 -8 -6 0 5 9 11 11 13 13 12 12 12 12 12 11 11 11 11 11 10 10 9 9 9 9 10 10 10 10 11 12 12 11 11 10 9 8 6 5 4 3 2 1 1 1 2 2 2 3 2 2 1 0 0 2 5 7 9 10
24 23 17 9 4 0 -3 -7 -10 -10 -7 -1 5 8 10 10 10 12 14 14 12 12 11 11 10 9 10 10 9 9 9 8 8 8 9 9 10 10 10 11 11 11 10 9 8 8 7 6 5 4 3 3 2 2 2 3 3 3 2 2 1 1 1 3 6 7 9 10 9
18 10 2 -4 -6 -8 -9 -10 -8 -4 1 6 8 9 9 10 9 10 13 14 12 11 11 10 9 9 9 9 8 8 8 8 8 8 8 9 9 9 9 10 10 9 9 8 7 7 6 6 5 5 4 4 4 4 3 3 3 2 2 1 2 4 6 7 8 9 9 9 9
5 -0 -4 -6 -6 -5 -3 -1 2 6 9 11 11 11 11 10 9 10 11 12 11 10 10 10 9 9 9 8 8 8 7 7 8 8 8 8 9 9 9 9 9 8 8 7 7 7 6 6 6 6 5 5 5 4 4 3 2 2 3 4 5 7 9 9 9 9 9 9 9
1 2 3 4 5 7 8 9 10 11 12 12 12 12 12 10 9 9 10 11 10 10 10 10 9 8 8 8 8 7 6 7 9 9 9 9 9 9 9 9 8 8 8 7 7 7 6 6 6 6 6 5 5 4 4 3 3 4 5 7 8 9 9 9 9 9 9 9 11
1 8 14 16 15 14 14 14 14 13 13 12 12 12 11 10 10 10 10 10 10 10 9 9 8 8 8 8 7 7 8 9 10 11 10 10 10 10 10 9 9 8 8 7 7 7 7 6 6 6 5 5 4 4 4 5 6 7 8 8 8 8 9 9 8 9 10 12 14
-0 10 18 21 19 17 15 13 12 12 13 13 12 12 12 12 11 11 11 11 10 9 8 7 7 7 7 7 7 8 9 10 11 11 12 11 11 10 10 10 9 9 8 8 8 7 7 6 6 5 5 5 5 5 6 7 7 8 8 8 9 9 9 8 10 11 14 16 16
-4 1 8 15 18 17 16 19 14 12 12 13 13 13 13 13 13 13 12 11 10 9 8 7 7 7 7 7 8 9 10 11 11 12 12 12 11 11 10 10 10 9 9 8 8 7 6 6 6 6 6 6 7 7 7 8 8 8 9 9 9 9 9 11 13 15 16 16 15
-3 -5 -3 2 8 10 10 10 13 13 13 14 14 14 13 13 14 14 12 9 9 9 8 8 7 7 7 8 9 10 10 11 11 12 12 12 11 11 10 9 9 8 8 7 7 7 6 6 7 7 7 7 8 8 8 8 8 9 9 9 9 11 12 14 16 16 15 14 12
1 -1 -0 3 6 6 3 -3 8 14 16 15 15 14 12 10 13 13 12 7 10 10 9 8 7 7 7 8 9 10 10 11 11 11 10 10 9 9 8 8 7 7 7 7 7 7 7 8 8 8 8 8 8 8 8 8 8 8 9 10 12 14 15 16 16 15 13 11 10
9 9 9 10 9 6 4 5 15 18 18 17 16 15 13 12 13 14 13 8 9 10 9 8 7 7 8 9 9 10 10 9 9 9 8 8 7 7 7 7 7 7 8 8 8 8 8 8 8 8 8 8 8 8 8 8 9 10 12 14 15 16 16 15 14 12 11 9 7
18 18 18 17 16 14 14 16 19 19 18 16 16 15 15 14 15 14 13 10 9 9 8 7 7 8 8 9 9 9 8 8 7 7 7 7 7 7 7 7 8 8 8 8 8 8 8 8 7 7 7 7 7 8 9 10 11 13 15 16 16 16 15 13 12 10 8 7 5
15 15 15 16 17 18 19 19 18 17 16 15 15 15 14 14 14 13 12 11 10 9 8 7 7 8 8 8 8 8 8 8 8 8 8 8 8 8 8 7 7 7 7 7 7 7 7 7 7 7 7 8 9 10 11 13 14 15 16 16 15 14 12 10 9 7 6 5 4
11 11 11 12 13 14 15 15 14 13 12 12 13 13 13 13 13 12 11 11 10 9 8 8 9 9 9 9 9 9 8 8 8 8 8 8 7 7 7 6 6 6 6 6 7 7 7 8 8 9 9 10 12 13 14 16 16 16 15 15 13 11 9 7 6 5 4 4 4
12 13 14 14 14 13 13 12 12 12 12 12 12 12 12 12 12 12 11 11 11 10 10 10 10 10 10 9 9 9 8 8 8 7 7 6 6 6 6 6 6 6 6 7 7 8 9 9 10 11 12 13 14 15 16 16 16 15 14 12 10 8 6 5 5 4 4 4 4
10 10 11 11 11 11 10 10 10 10 11 11 11 11 11 11 11 11 11 10 10 10 10 10 10 9 9 8 8 7 6 6 6 5 5 5 5 5 6 6 7 8 8 8 9 10 11 12 13 14 15 16 16 16 16 15 14 12 11 9 7 6 5 4 4 4 4 4 4
6 6 6 6 6 6 7 7 7 8 8 8 8 8 8 9 9 9 9 8 8 8 8 8 7 7 6 6 5 5 5 4 4 5 5 6 6 7 8 8 9 10 10 11 12 12 13 14 15 16 16 17 16 15 14 12 11 9 7 6 5 4 4 4 4 4 4 5 5
5 5 4 4 4 4 4 5 5 5 5 5 5 5 6 6 6 6 6 6 6 6 5 5 5 5 5 5 5 5 5 5 6 7 7 8 9 9 10 11 11 12 12 13 14 15 16 16 16 16 16 15 14 12 10 9 7 6 5 4 4 4 4 4 4 5 5 5 5
Height
2998 3001 3004 3006 3009 3012 3015 3017 3020 3022 3024 3026 3029 3031 3033 3035 3037 3039 3041 3043 3045 3048 3050 3052 3054 3055 3056 3056 3057 3058 3059 3059 3060 3061 3062 3063 3064 3064 3065 3066 3066 3067 3068 3069 3070 3071 3072 3074 3075 3076 3077 3078 3079 3080 3081 3082 3083 3083 3084 3085 3085 3086 3086 3087 3088 3088 3089 3089 3090
2998 3000 3003 3005 3008 3011 3014 3017 3019 3021 3024 3026 3028 3030 3032 3034 3036 3038 3040 3042 3045 3047 3050 3051 3053 3054 3055 3055 3056 3056 3057 3058 3059 3060 3060 3061 3062 3063 3064 3064 3065 3066 3067 3068 3069 3070 3071 3073 3074 3075 3076 3077 3078 3079 3080 3081 3082 3082 3083 3084 3084 3085 3085 3086 3086 3087 3088 3088 3089
2997 3000 3002 3005 3008 3011 3013 3016 3018 3020 3023 3025 3026 3029 3030 3032 3034 3037 3039 3042 3045 3047 3049 3050 3052 3053 3054 3054 3055 3055 3056 3057 3057 3058 3059 3060 3061 3061 3062 3063 3064 3065 3065 3067 3068 3069 3070 3072 3073 3074 3075 3076 3077 3078 3079 3080 3080 3081 3082 3083 3083 3084 3085 3085 3085 3086 3087 3087 3088
2996 2999 3002 3005 3007 3010 3012 3015 3017 3020 3022 3024 3025 3027 3029 3031 3033 3036 3039 3041 3044 3046 3048 3050 3051 3052 3052 3053 3053 3054 3055 3055 3056 3057 3058 3059 3059 3060 3061 3062 3063 3064 3065 3066 3067 3068 3070 3071 3072 3073 3074 3075 3076 3077 3078 3079 3080 3080 3081 3081 3082 3083 3084 3084 3085 3085 3086 3086 3087
2996 2999 3001 3004 3007 3010 3012 3014 3016 3019 3020 3022 3024 3026 3028 3030 3032 3035 3038 3041 3043 3045 3047 3049 3050 3050 3050 3051 3052 3052 3053 3054 3055 3056 3056 3057 3058 3059 3060 3060 3061 3062 3064 3065 3066 3068 3069 3070 3071 3072 3073 3074 3075 3076 3077 3078 3079 3079 3080 3081 3081 3082 3083 3083 3084 3085 3085 3086 3086
2997 2999 3001 3004 3006 3009 3011 3013 3015 3018 3020 3021 3023 3025 3027 3030 3032 3035 3038 3040 3043 3045 3046 3047 3048 3049 3049 3050 3050 3051 3052 3053 3054 3055 3055 3056 3057 3058 3059 3060 3060 3062 3063 3064 3065 3067 3068 3069 3070 3072 3073 3074 3074 3075 3076 3077 3078 3078 3079 3080 3081 3081 3082 3082 3083 3084 3085 3085 3086
2996 2999 3001 3004 3006 3008 3010 3012 3015 3016 3018 3020 3022 3024 3027 3029 3031 3034 3037 3040 3042 3044 3045 3046 3047 3047 3048 3049 3049 3050 3051 3052 3053 3054 3055 3055 3056 3057 3058 3059 3060 3061 3062 3064 3065 3066 3067 3069 3070 3071 3072 3073 3073 3074 3075 3076 3077 3078 3078 3079 3080 3080 3081 3081 3082 3083 3084 3085 3085
2996 2999 3001 3003 3005 3007 3009 3011 3013 3015 3017 3019 3021 3024 3026 3028 3031 3034 3037 3039 3041 3043 3044 3045 3045 3046 3047 3048 3049 3050 3050 3051 3052 3053 3054 3055 3055 3056 3057 3058 3059 3060 3061 3063 3064 3065 3067 3068 3069 3070 3071 3072 3072 3073 3074 3075 3076 3077 3078 3078 3079 3080 3080 3081 3082 3083 3084 3084 3085
2995 2998 3000 3003 3005 3006 3008 3010 3012 3014 3016 3019 3021 3024 3026 3028 3030 3033 3036 3038 3040 3042 3043 3044 3044 3045 3046 3047 3048 3049 3050 3051 3051 3052 3053 3054 3055 3055 3056 3057 3059 3060 3061 3062 3064 3065 3066 3068 3068 3069 3070 3071 3072 3072 3074 3075 3075 3076 3077 3077 3078 3079 3080 3080 3082 3082 3083 3084 3085
2995 2998 3000 3002 3004 3006 3008 3010 3012 3014 3016 3018 3021 3024 3025 3027 3030 3032 3035 3037 3039 3040 3042 3043 3044 3044 3045 3046 3047 3048 3049 3050 3051 3051 3052 3053 3054 3055 3056 3057 3058 3059 3061 3062 3064 3065 3066 3067 3068 3068 3069 3070 3071 3072 3073 3074 3075 3075 3076 3076 3077 3078 3079 3080 3081 3082 3083 3083 3084
2995 2998 3000 3002 3004 3005 3007 3009 3012 3014 3016 3018 3021 3023 3025 3026 3029 3031 3034 3036 3038 3040 3041 3042 3043 3044 3045 3046 3047 3047 3048 3049 3050 3050 3051 3052 3053 3054 3055 3056 3058 3059 3060 3062 3063 3064 3065 3066 3067 3068 3069 3070 3070 3071 3072 3073 3074 3075 3075 3076 3077 3078 3079 3080 3081 3082 3082 3082 3083
2995 2998 3000 3002 3004 3005 3007 3009 3012 3014 3016 3018 3020 3022 3023 3026 3029 3031 3034 3036 3037 3039 3040 3041 3042 3043 3044 3045 3045 3046 3047 3048 3049 3050 3050 3052 3053 3054 3055 3056 3057 3059 3060 3061 3063 3064 3065 3065 3066 3067 3068 3069 3070 3071 3072 3072 3073 3074 3075 3076 3077 3078 3079 3080 3080 3081 3081 3082 3082
2995 2998 3000 3002 3003 3005 3007 3010 3011 3013 3016 3018 3020 3021 3023 3026 3029 3031 3034 3035 3037 3038 3040 3040 3041 3042 3043 3044 3045 3045 3046 3047 3048 3049 3050 3051 3052 3053 3055 3056 3057 3058 3060 3061 3062 3063 3064 3065 3065 3066 3067 3068 3069 3070 3071 3072 3073 3074 3075 3076 3077 3078 3079 3079 3080 3080 3080 3081 3081
2996 2998 3000 3001 3003 3005 3007 3009 3010 3013 3015 3018 3020 3021 3024 3027 3029 3031 3033 3035 3036 3037 3039 3040 3040 3041 3042 3043 3044 3045 3045 3046 3048 3049 3050 3051 3052 3053 3054 3055 3056 3058 3059 3060 3061 3062 3063 3064 3065 3066 3067 3068 3069 3070 3070 3071 3072 3074 3075 3076 3077 3077 3078 3078 3079 3079 3080 3080 3080
2996 2998 3000 3001 3003 3005 3007 3008 3011 3013 3016 3018 3020 3022 3024 3026 3029 3030 3032 3034 3035 3036 3038 3038 3039 3040 3041 3042 3043 3044 3045 3046 3047 3048 3049 3050 3051 3053 3054 3055 3056 3057 3058 3060 3060 3061 3062 3063 3064 3065 3066 3067 3068 3069 3070 3071 3072 3074 3075 3075 3076 3077 3077 3078 3078 3079 3079 3079 3079
2995 2998 3000 3002 3003 3005 3007 3009 3012 3015 3017 3019 3020 3022 3024 3026 3028 3030 3032 3033 3034 3035 3036 3037 3038 3039 3040 3041 3042 3044 3045 3046 3047 3048 3049 3050 3051 3052 3053 3055 3055 3057 3058 3059 3060 3061 3062 3063 3064 3065 3066 3067 3068 3069 3070 3071 3072 3073 3074 3075 3075 3076 3077 3077 3077 3078 3078 3078 3078
2996 2998 3000 3002 3004 3005 3008 3010 3013 3016 3018 3019 3020 3022 3024 3026 3028 3030 3031 3032 3033 3035 3035 3037 3038 3039 3040 3041 3042 3043 3045 3046 3047 3048 3049 3050 3051 3052 3053 3054 3055 3056 3057 3058 3059 3060 3061 3062 3063 3065 3066 3067 3068 3069 3070 3071 3072 3073 3074 3075 3075 3075 3076 3076 3076 3077 3077 3077 3078
2996 2998 3000 3002 3004 3006 3009 3011 3014 3016 3018 3019 3020 3022 3025 3026 3028 3030 3031 3032 3033 3034 3035 3036 3037 3038 3040 3041 3042 3043 3044 3045 3046 3047 3049 3050 3050 3051 3053 3054 3055 3056 3057 3058 3059 3060 3061 3062 3063 3065 3066 3067 3068 3069 3070 3071 3072 3073 3073 3074 3074 3075 3075 3075 3076 3076 3076 3077 3077
2996 2998 3000 3002 3005 3008 3010 3012 3014 3015 3017 3018 3020 3023 3025 3027 3028 3029 3030 3032 3033 3034 3035 3036 3037 3038 3039 3040 3042 3043 3044 3045 3046 3047 3048 3049 3050 3051 3052 3053 3055 3056 3057 3058 3059 3060 3061 3062 3064 3065 3066 3067 3068 3069 3070 3071 3071 3072 3072 3073 3073 3074 3074 3075 3075 3075 3075 3076 3076
2996 2998 3001 3004 3006 3008 3010 3011 3012 3014 3016 3019 3021 3024 3025 3026 3028 3029 3030 3031 3032 3033 3034 3035 3037 3038 3039 3040 3042 3043 3044 3045 3046 3047 3048 3049 3050 3051 3052 3053 3055 3055 3057 3058 3059 3060 3061 3062 3064 3065 3066 3067 3068 3068 3069 3070 3070 3071 3071 3072 3073 3073 3074 3074 3074 3074 3075 3075 3074
2997 3000 3002 3004 3005 3006 3008 3010 3011 3014 3017 3020 3022 3024 3025 3026 3028 3029 3030 3031 3032 3033 3034 3035 3037 3038 3039 3040 3042 3043 3044 3045 3046 3047 3048 3049 3050 3051 3052 3054 3055 3056 3057 3058 3059 3060 3061 3063 3064 3065 3065 3066 3067 3068 3068 3069 3070 3070 3071 3071 3072 3072 3073 3073 3073 3073 3073 3073 3073
2999 3000 3001 3003 3004 3005 3007 3010 3012 3015 3018 3020 3022 3024 3025 3026 3027 3028 3029 3030 3031 3033 3034 3035 3037 3038 3040 3040 3042 3043 3044 3045 3046 3047 3048 3049 3050 3051 3053 3054 3055 3056 3057 3058 3059 3060 3061 3062 3063 3064 3065 3066 3066 3067 3068 3069 3069 3070 3070 3071 3071 3072 3072 3072 3072 3072 3072 3071 3071
2999 3000 3001 3003 3005 3006 3009 3011 3013 3016 3019 3020 3022 3023 3025 3026 3027 3028 3029 3030 3031 3033 3034 3035 3037 3038 3040 3040 3042 3043 3044 3045 3046 3048 3049 3050 3050 3052 3053 3054 3055 3056 3057 3058 3059 3060 3061 3062 3063 3064 3065 3065 3066 3067 3067 3068 3069 3069 3070 3070 3070 3071 3071 3071 3071 3070 3070 3070 3069
2999 3000 3002 3004 3006 3008 3010 3013 3015 3017 3019 3020 3022 3023 3024 3025 3026 3028 3029 3030 3032 3033 3035 3036 3037 3038 3039 3041 3042 3043 3044 3045 3046 3048 3049 3050 3050 3052 3053 3054 3055 3056 3057 3058 3059 3060 3061 3061 3062 3063 3064 3065 3065 3066 3067 3067 3068 3069 3069 3069 3069 3070 3070 3069 3069 3069 3068 3068 3068
3000 3001 3003 3005 3008 3010 3012 3014 3016 3018 3019 3021 3023 3024 3025 3026 3027 3028 3029 3030 3032 3033 3035 3036 3038 3039 3040 3041 3042 3043 3044 3045 3046 3048 3049 3050 3051 3052 3053 3054 3055 3056 3057 3058 3059 3059 3060 3061 3062 3063 3063 3064 3065 3066 3066 3067 3067 3068 3068 3068 3068 3068 3068 3068 3067 3067 3067 3067 3066
3002 3004 3006 3008 3010 3012 3014 3015 3017 3019 3020 3021 3023 3024 3025 3026 3027 3028 3030 3031 3032 3034 3035 3036 3038 3039 3040 3041 3042 3043 3044 3045 3046 3047 3049 3050 3050 3051 3052 3053 3054 3055 3056 3057 3058 3059 3060 3060 3061 3062 3063 3064 3065 3065 3066 3066 3066 3067 3067 3067 3066 3066 3066 3066 3066 3066 3066 3065 3065
3005 3007 3009 3010 3012 3014 3015 3017 3018 3019 3020 3022 3023 3024 3025 3026 3027 3029 3030 3031 3032 3034 3035 3036 3037 3039 3040 3041 3042 3044 3045 3046 3047 3047 3048 3049 3050 3051 3052 3053 3054 3055 3056 3057 3058 3058 3059 3060 3061 3062 3063 3063 3064 3065 3065 3065 3065 3065 3065 3065 3065 3065 3065 3065 3065 3065 3064 3064 3064
3008 3010 3011 3012 3014 3015 3017 3018 3019 3020 3021 3022 3023 3024 3025 3027 3028 3029 3030 3031 3033 3034 3035 3037 3038 3039 3040 3041 3043 3044 3045 3046 3046 3047 3048 3049 3050 3051 3052 3053 3054 3055 3055 3056 3057 3058 3059 3060 3061 3061 3062 3063 3063 3064 3064 3064 3064 3064 3064 3064 3064 3064 3064 3064 3064 3063 3063 3063 3062
3010 3012 3013 3015 3016 3017 3018 3019 3020 3021 3022 3023 3024 3025 3026 3027 3028 3030 3031 3032 3033 3035 3036 3037 3038 3039 3040 3041 3042 3043 3044 3045 3046 3047 3048 3049 3050 3051 3052 3053 3054 3055 3055 3056 3057 3058 3059 3060 3060 3061 3061 3062 3062 3062 3062 3063 3063 3063 3063 3063 3063 3063 3062 3062 3062 3062 3061 3061 3060
3011 3013 3015 3016 3017 3018 3019 3020 3021 3022 3023 3024 3025 3026 3027 3028 3029 3030 3031 3033 3034 3035 3036 3037 3039 3040 3040 3041 3043 3044 3045 3045 3046 3047 3048 3049 3050 3051 3052 3053 3054 3055 3055 3056 3057 3058 3059 3059 3060 3060 3060 3061 3061 3061 3061 3061 3061 3061 3061 3061 3061 3061 3061 3061 3060 3060 3060 3059 3059
3013 3014 3015 3016 3017 3018 3020 3021 3022 3023 3024 3025 3025 3026 3028 3029 3030 3031 3032 3033 3035 3036 3037 3038 3039 3040 3041 3042 3043 3044 3045 3046 3047 3048 3048 3049 3050 3051 3052 3052 3053 3054 3055 3056 3057 3057 3058 3058 3059 3059 3059 3059 3059 3060 3060 3060 3060 3060 3060 3060 3060 3060 3060 3060 3059 3059 3058 3058 3057
3014 3015 3016 3017 3019 3020 3021 3022 3023 3024 3025 3025 3026 3027 3029 3030 3031 3031 3032 3034 3035 3036 3037 3038 3039 3040 3041 3042 3043 3044 3045 3045 3046 3047 3048 3049 3050 3050 3051 3052 3053 3054 3055 3055 3056 3056 3056 3057 3057 3057 3058 3058 3058 3058 3059 3059 3059 3059 3059 3059 3059 3059 3058 3058 3057 3057 3057 3056 3056
3015 3016 3017 3019 3020 3020 3021 3023 3024 3024 3025 3025 3026 3027 3029 3031 3032 3032 3033 3034 3035 3036 3037 3038 3039 3040 3041 3042 3043 3044 3045 3045 3046 3047 3048 3049 3050 3050 3051 3052 3053 3053 3054 3054 3055 3055 3055 3055 3056 3056 3056 3057 3057 3057 3058 3058 3058 3058 3058 3058 3057 3057 3057 3056 3056 3056 3055 3055 3055
3016 3017 3018 3019 3020 3020 3021 3022 3022 3023 3024 3025 3026 3027 3028 3029 3031 3032 3033 3034 3035 3036 3037 3038 3039 3040 3041 3042 3043 3044 3045 3045 3046 3047 3048 3049 3050 3050 3050 3051 3052 3052 3053 3053 3053 3054 3054 3055 3055 3055 3056 3056 3056 3056 3057 3057 3057 3056 3056 3056 3056 3056 3055 3055 3055 3055 3054 3054 3054
3016 3017 3018 3019 3020 3020 3021 3022 3023 3024 3024 3025 3026 3027 3028 3029 3030 3032 3033 3034 3035 3036 3037 3038 3039 3040 3041 3042 3043 3044 3045 3045 3046 3047 3047 3048 3048 3049 3050 3050 3050 3051 3052 3052 3053 3053 3053 3054 3054 3055 3055 3055 3055 3055 3055 3055 3055 3055 3055 3055 3055 3054 3054 3054 3054 3053 3053 3053 3052
3016 3017 3018 3019 3020 3021 3021 3022 3023 3024 3025 3026 3027 3028 3029 3030 3031 3032 3033 3034 3035 3036 3037 3038 3039 3040 3041 3042 3043 3044 3044 3045 3045 3046 3046 3047 3048 3048 3049 3049 3050 3050 3051 3051 3052 3052 3053 3053 3054 3054 3054 3054 3054 3054 3054 3054 3054 3054 3054 3053 3053 3053 3053 3053 3053 3052 3052 3052 3051
3017 3018 3020 3020 3021 3022 3022 3023 3024 3025 3026 3027 3028 3029 3029 3030 3031 3032 3033 3035 3035 3037 3038 3039 3040 3040 3041 3042 3042 3043 3044 3044 3045 3045 3046 3047 3047 3048 3048 3049 3049 3050 3050 3051 3051 3052 3052 3052 3052 3053 3053 3053 3053 3053 3053 3053 3053 3052 3052 3052 3052 3052 3052 3052 3052 3051 3051 3050 3050
3018 3019 3020 3021 3022 3023 3023 3024 3025 3025 3026 3027 3028 3029 3030 3031 3032 3033 3034 3035 3035 3036 3037 3038 3039 3040 3041 3041 3042 3043 3043 3044 3045 3045 3045 3046 3047 3047 3048 3048 3049 3049 3050 3050 3050 3051 3051 3051 3051 3051 3051 3051 3051 3051 3051 3051 3051 3051 3051 3051 3051 3051 3051 3051 3051 3050 3050 3050 3049
3019 3019 3020 3021 3022 3023 3023 3024 3025 3025 3026 3027 3028 3029 3030 3031 3032 3033 3034 3035 3035 3036 3037 3038 3039 3040 3040 3041 3042 3042 3043 3044 3044 3045 3045 3046 3046 3047 3047 3048 3048 3049 3049 3049 3049 3050 3050 3050 3050 3050 3050 3050 3050 3050 3050 3050 3050 3050 3050 3050 3050 3050 3050 3050 3050 3050 3049 3049 3048
3020 3021 3021 3022 3023 3024 3025 3025 3026 3026 3027 3028 3029 3030 3030 3031 3032 3033 3034 3035 3036 3037 3037 3038 3039 3040 3040 3041 3042 3042 3043 3043 3044 3045 3045 3045 3046 3046 3047 3047 3047 3048 3048 3048 3048 3048 3049 3049 3049 3049 3049 3050 3050 3050 3050 3050 3050 3050 3050 3050 3050 3049 3049 3049 3049 3049 3048 3048 3047
3021 3022 3023 3023 3024 3025 3025 3026 3027 3027 3028 3029 3030 3030 3031 3032 3033 3034 3035 3035 3036 3037 3038 3038 3039 3040 3040 3041 3041 3042 3042 3043 3043 3044 3044 3045 3045 3045 3046 3046 3046 3046 3047 3047 3047 3047 3048 3048 3048 3048 3049 3049 3049 3049 3049 3049 3049 3049 3049 3049 3049 3049 3048 3048 3048 3048 3047 3047 3046